sat.trackr.live / text

‹ back to catalog

STARLINK-11094 [DTC]

NORAD 59714 · 2024-088G

PAYLOAD ACTIVE UNKNOWN

§ Identity

Operator
Country
US
Launch date
2024-05-10
Launch site
AFWTR
Launch vehicle
Mass (kg)
RCS (m²)

Purposes: comms

External: N2YO · Heavens-Above · Gunter

§ Orbital elements

Epoch: 2026-05-25T04:01:14.232576Z

Period
91.74 min
Inclination
53.1584°
Eccentricity
0.0001123
Mean motion
15.69711335 rev/d
Perigee alt
359.0 km
Apogee alt
360.5 km
Semi-major
6,737.9 km
B*
1.8721e-5
RAAN
309.2885°
Arg perigee
79.1647°
Mean anomaly
280.9497°
Rev number
11,828

§ Raw data

STARLINK-11094 [DTC]1 59714U 24088G   26145.16752584  .00001680  00000+0  18721-4 0  99912 59714  53.1584 309.2885 0001123  79.1647 280.9497 15.69711335118280

JSON: /api/v1/satellites/59714 · /tle

For live sub-satellite position, see the globe view (requires WebGL).

§ Visibility from observer

Set your observer location to see the next 7 days of passes ≥ 10°. The values pass through the URL so the page stays shareable.

No JS? Fill the form by hand. The geolocation button needs JavaScript.